GW4300 Weather Reports


time (UTC)temp
F
wind
direction
speed
knots
gust
knots
rain 1hr
in
rain 24hr
in
rain mn
in
humidity
%
barometer
mb
20260504082007 0 0.0 0.0 0.00 0.00 0.00 1015.6
20260504081533 0 0.0 0.0 0.00 0.00 0.00 1015.6
20260504081008 0 0.0 0.0 0.00 0.00 0.00 1015.7
20260504080508 0 0.0 0.0 0.00 0.00 0.00 1015.7
20260504050508 47 277 0.0 0.0 0.00 0.00 0.00 73 1015.8
20260504050021 47 277 0.0 0.0 0.00 0.00 0.00 72 1015.8
20260504045505 48 277 0.0 0.0 0.00 0.00 0.00 68 1015.8
20260504045008 48 264 0.0 0.0 0.00 0.00 0.00 69 1015.9
20260504044529 48 264 0.0 0.9 0.00 0.00 0.00 67 1016.0
20260504044010 49 264 0.0 0.9 0.00 0.00 0.00 67 1016.0
20260504043503 49 252 0.0 0.0 0.00 0.00 0.00 67 1015.9
20260504043015 48 251 0.0 0.0 0.00 0.00 0.00 66 1015.9
20260504042507 48 251 0.0 0.0 0.00 0.00 0.00 66 1015.9
20260504042008 48 273 0.0 0.0 0.00 0.00 0.00 64 1015.9
20260504041538 47 281 0.0 0.0 0.00 0.00 0.00 68 1015.8
20260504041009 47 281 0.0 0.0 0.00 0.00 0.00 69 1015.8
20260504040510 46 281 0.0 0.9 0.00 0.00 0.00 68 1015.8
20260504040032 45 282 0.0 0.9 0.00 0.00 0.00 70 1015.8
20260504035510 45 279 0.0 0.0 0.00 0.00 0.00 73 1015.8
20260504035006 45 279 0.0 0.0 0.00 0.00 0.00 74 1015.7
20260504034518 45 279 0.0 0.0 0.00 0.00 0.00 74 1015.6
20260504034007 45 279 0.0 0.0 0.00 0.00 0.00 75 1015.6
20260504033507 45 279 0.0 0.0 0.00 0.00 0.00 75 1015.6
20260504033025 45 279 0.0 0.0 0.00 0.00 0.00 75 1015.5
20260504032509 45 290 0.0 0.0 0.00 0.00 0.00 75 1015.4
20260504032012 45 290 0.0 0.0 0.00 0.00 0.00 74 1015.3
20260504031530 45 290 0.0 0.0 0.00 0.00 0.00 73 1015.2
20260504031006 45 290 0.0 0.0 0.00 0.00 0.00 73 1015.2
20260504030508 45 290 0.0 0.0 0.00 0.00 0.00 72 1015.2
20260504030022 45 290 0.0 0.0 0.00 0.00 0.00 72 1015.3
20260504025507 45 290 0.0 0.0 0.00 0.00 0.00 72 1015.2
20260504025011 45 290 0.0 0.0 0.00 0.00 0.00 71 1015.2
20260504024526 46 290 0.0 0.0 0.00 0.00 0.00 71 1015.2
20260504024009 46 290 0.0 0.0 0.00 0.00 0.00 70 1015.2
20260504023507 46 290 0.0 0.0 0.00 0.00 0.00 70 1015.2
20260504023018 46 290 0.0 0.0 0.00 0.00 0.00 69 1015.2
20260504022507 47 290 0.0 0.0 0.00 0.00 0.00 68 1015.2
20260504022008 47 290 0.0 0.0 0.00 0.00 0.00 68 1015.2
20260504021524 47 290 0.0 0.0 0.00 0.00 0.00 67 1015.2
20260504021006 47 290 0.0 0.0 0.00 0.00 0.00 67 1015.2
20260504020508 47 290 0.0 0.0 0.00 0.00 0.00 67 1015.1
20260504020036 48 290 0.0 0.0 0.00 0.00 0.00 66 1015.1
20260504015507 48 290 0.0 0.0 0.00 0.00 0.00 65 1015.2
20260504015005 48 290 0.0 0.0 0.00 0.00 0.00 64 1015.1
20260504014502 48 290 0.0 0.0 0.00 0.00 0.00 63 1015.2
20260504014006 49 290 0.0 0.0 0.00 0.00 0.00 63 1015.1
20260504013505 49 290 0.0 0.0 0.00 0.00 0.00 62 1015.1
20260504013006 49 290 0.0 0.0 0.00 0.00 0.00 61 1015.1
20260504012508 49 290 0.0 0.0 0.00 0.00 0.00 60 1015.0
20260504012004 50 290 0.0 0.0 0.00 0.00 0.00 60 1015.0
20260504011515 50 290 0.0 0.0 0.00 0.00 0.00 56 1014.9
20260504011001 51 290 0.0 0.0 0.00 0.00 0.00 55 1014.8
20260504010501 52 290 0.0 0.0 0.00 0.00 0.00 54 1014.8
20260504010005 52 290 0.0 0.0 0.00 0.00 0.00 52 1014.8
20260504005503 53 290 0.0 0.0 0.00 0.00 0.00 51 1014.8
20260504005004 54 290 0.0 0.0 0.00 0.00 0.00 49 1014.7
20260504004515 54 290 0.0 0.0 0.00 0.00 0.00 47 1014.6
20260504004004 55 290 0.0 0.0 0.00 0.00 0.00 47 1014.6
20260504003505 55 290 0.0 0.0 0.00 0.00 0.00 45 1014.5
20260504003019 55 290 0.0 0.0 0.00 0.00 0.00 44 1014.5
20260504002502 56 290 0.0 0.0 0.00 0.00 0.00 43 1014.5
20260504002002 56 290 0.0 0.0 0.00 0.00 0.00 41 1014.4
20260504001511 57 290 0.0 0.0 0.00 0.00 0.00 41 1014.4
20260504001004 57 290 0.0 0.0 0.00 0.00 0.00 40 1014.4
20260504000505 58 290 0.0 0.0 0.00 0.00 0.00 39 1014.4
20260504000013 58 290 0.0 0.9 0.00 0.00 0.00 39 1014.4
20260503235504 59 290 0.0 0.9 0.00 0.00 0.00 38 1014.3
20260503235004 59 258 0.0 0.0 0.00 0.00 0.00 35 1014.2
20260503234503 60 257 0.0 0.0 0.00 0.00 0.00 35 1014.2
20260503234003 60 257 0.0 1.7 0.00 0.00 0.00 33 1014.1
20260503233502 60 257 0.0 1.7 0.00 0.00 0.00 35 1014.0
20260503233011 61 234 0.0 1.7 0.00 0.00 0.00 32 1014.0
20260503232504 61 234 0.0 1.7 0.00 0.00 0.00 31 1014.0
20260503232005 61 271 0.0 0.9 0.00 0.00 0.00 31 1014.0
20260503231518 62 279 0.0 1.7 0.00 0.00 0.00 31 1014.0
20260503231010 62 266 0.0 2.6 0.00 0.00 0.00 31 1013.9
20260503230502 62 234 0.0 2.6 0.00 0.00 0.00 29 1013.9
20260503230011 62 290 0.0 1.7 0.00 0.00 0.00 29 1013.9
20260503225503 62 319 0.0 2.6 0.00 0.00 0.00 30 1013.9
20260503225003 62 340 0.0 3.5 0.00 0.00 0.00 29 1014.0
20260503224513 62 195 1.7 6.1 0.00 0.00 0.00 29 1014.1
20260503224007 62 204 1.7 7.8 0.00 0.00 0.00 28 1014.0
20260503223507 63 334 2.6 7.8 0.00 0.00 0.00 28 1013.9
20260503223026 63 288 1.7 6.1 0.00 0.00 0.00 29 1014.0
20260503222503 62 309 0.0 6.1 0.00 0.00 0.00 30 1013.9
20260503222004 62 271 0.9 5.2 0.00 0.00 0.00 29 1013.9
20260503221508 62 217 0.9 4.3 0.00 0.00 0.00 30 1013.9
20260503221004 62 215 1.7 7.0 0.00 0.00 0.00 28 1014.0
20260503220504 62 207 1.7 7.0 0.00 0.00 0.00 29 1014.1
20260503220016 63 290 1.7 3.5 0.00 0.00 0.00 30 1014.2
20260503215508 63 193 1.7 4.3 0.00 0.00 0.00 29 1014.0
20260503215013 62 322 0.9 7.8 0.00 0.00 0.00 28 1014.0
20260503214508 62 269 1.7 7.8 0.00 0.00 0.00 28 1014.0
20260503214007 62 215 2.6 7.0 0.00 0.00 0.00 29 1014.1
20260503213504 62 317 2.6 7.0 0.00 0.00 0.00 28 1014.0
20260503213012 62 326 3.5 8.7 0.00 0.00 0.00 31 1014.0
20260503212508 62 212 0.9 8.7 0.00 0.00 0.00 31 1014.1
20260503212007 62 314 2.6 7.8 0.00 0.00 0.00 30 1014.0
20260503211519 62 275 0.9 6.1 0.00 0.00 0.00 30 1013.9
20260503211013 61 273 1.7 6.1 0.00 0.00 0.00 30 1014.0
20260503210502 61 229 1.7 7.0 0.00 0.00 0.00 32 1014.0
20260503210006 61 200 2.6 8.7 0.00 0.00 0.00 30 1014.0
20260503205502 61 228 2.6 11.3 0.00 0.00 0.00 31 1014.0
20260503205004 62 159 5.2 11.3 0.00 0.00 0.00 30 1014.2
20260503204516 61 291 2.6 8.7 0.00 0.00 0.00 33 1014.1
20260503204008 61 209 1.7 8.7 0.00 0.00 0.00 30 1014.1
20260503203509 61 300 3.5 7.8 0.00 0.00 0.00 32 1014.2
20260503203033 61 309 3.5 11.3 0.00 0.00 0.00 31 1014.2
20260503202503 61 360 3.5 11.3 0.00 0.00 0.00 29 1014.3
20260503202006 60 241 3.5 9.6 0.00 0.00 0.00 32 1014.4
20260503201511 61 290 2.6 7.0 0.00 0.00 0.00 32 1014.4
20260503201004 61 312 2.6 7.0 0.00 0.00 0.00 33 1014.6
20260503200509 62 335 2.6 7.0 0.00 0.00 0.00 32 1014.6
20260503200025 61 317 0.9 5.2 0.00 0.00 0.00 34 1014.7
20260503195506 61 324 1.7 5.2 0.00 0.00 0.00 34 1014.8
20260503195008 61 348 3.5 7.0 0.00 0.00 0.00 33 1014.7
20260503194527 61 259 2.6 7.0 0.00 0.00 0.00 31 1014.9
20260503194006 61 165 1.7 10.4 0.00 0.00 0.00 33 1014.8
20260503193506 61 281 3.5 10.4 0.00 0.00 0.00 32 1014.9
20260503193025 61 286 2.6 7.0 0.00 0.00 0.00 32 1014.9
20260503192506 61 257 2.6 7.0 0.00 0.00 0.00 31 1015.0
20260503192007 60 283 3.5 7.0 0.00 0.00 0.00 33 1014.9
20260503191547 60 312 2.6 7.0 0.00 0.00 0.00 33 1015.0
20260503191008 60 287 1.7 7.0 0.00 0.00 0.00 35 1015.3
20260503190508 60 319 1.7 8.7 0.00 0.00 0.00 35 1015.3
20260503190011 60 309 2.6 8.7 0.00 0.00 0.00 33 1015.2
20260503185504 60 279 2.6 7.8 0.00 0.00 0.00 34 1015.2
20260503185006 59 331 3.5 8.7 0.00 0.00 0.00 35 1015.3
20260503184520 59 258 1.7 8.7 0.00 0.00 0.00 36 1015.4
20260503184009 59 300 4.3 8.7 0.00 0.00 0.00 34 1015.4
20260503183510 59 352 1.7 7.0 0.00 0.00 0.00 36 1015.5
20260503183025 58 198 2.6 7.0 0.00 0.00 0.00 35 1015.6
20260503182509 58 271 1.7 7.8 0.00 0.00 0.00 36 1015.5
20260503182004 58 256 1.7 7.8 0.00 0.00 0.00 33 1015.5
20260503181514 58 306 3.5 7.8 0.00 0.00 0.00 37 1015.7
20260503181004 58 288 2.6 7.0 0.00 0.00 0.00 36 1015.6
20260503180507 58 299 1.7 7.0 0.00 0.00 0.00 36 1015.6
20260503180026 58 352 3.5 7.0 0.00 0.00 0.00 33 1015.6
20260503175509 57 318 2.6 8.7 0.00 0.00 0.00 35 1015.7
20260503175007 57 282 3.5 8.7 0.00 0.00 0.00 35 1015.8
20260503174530 57 192 3.5 7.8 0.00 0.00 0.00 35 1015.9
20260503174003 57 195 1.7 7.8 0.00 0.00 0.00 38 1015.8
20260503173504 57 282 1.7 7.8 0.00 0.00 0.00 36 1015.8
20260503173015 56 334 1.7 7.8 0.00 0.00 0.00 38 1015.9
20260503172509 56 274 2.6 9.6 0.00 0.00 0.00 36 1015.9
20260503172013 56 263 3.5 9.6 0.00 0.00 0.00 36 1016.1
20260503171526 56 294 3.5 9.6 0.00 0.00 0.00 37 1016.0
20260503171007 56 333 2.6 8.7 0.00 0.00 0.00 37 1016.0
20260503170510 56 258 5.2 8.7 0.00 0.00 0.00 36 1016.2
20260503151004 51 338 1.7 9.6 0.00 0.00 0.00 40 1016.7
20260503150502 51 87 2.6 7.0 0.00 0.00 0.00 39 1016.9
20260503130503 47 280 2.6 6.1 0.00 0.00 0.00 52 1016.8
20260503110504 42 271 1.7 0.0 0.00 0.00 0.00 1015.9